| time (UTC) | temp F | wind direction | speed MPH | gust MPH | rain 1hr in | rain 24hr in | rain mn in | humidity % | barometer mb |
| 20260831181736 | 91 | 160 | 7.0 | 13.0 | 0.00 | 0.00 | 0.00 | 52 | |
| 20260831181231 | 91 | 127 | 5.0 | 8.0 | 0.00 | 0.00 | 0.00 | 52 | |
| 20260831180731 | 90 | 135 | 2.0 | 13.0 | 0.00 | 0.00 | 0.00 | 55 | |
| 20260831180226 | 90 | 168 | 11.0 | 15.0 | 0.00 | 0.00 | 0.00 | 53 | |
| 20260831175725 | 90 | 127 | 8.0 | 14.0 | 0.00 | 0.00 | 0.00 | 54 | |
| 20260831175222 | 89 | 120 | 6.0 | 14.0 | 0.00 | 0.00 | 0.00 | 55 | |
| 20260831174722 | 90 | 147 | 11.0 | 15.0 | 0.00 | 0.00 | 0.00 | 55 | |
| 20260831174219 | 90 | 132 | 10.0 | 11.0 | 0.00 | 0.00 | 0.00 | 54 | |
| 20260831173717 | 90 | 170 | 7.0 | 10.0 | 0.00 | 0.00 | 0.00 | 55 | |
| 20260831173212 | 90 | 164 | 7.0 | 9.0 | 0.00 | 0.00 | 0.00 | 54 | |
| 20260831172712 | 90 | 191 | 8.0 | 11.0 | 0.00 | 0.00 | 0.00 | 54 | |
| 20260831172208 | 89 | 128 | 1.0 | 6.0 | 0.00 | 0.00 | 0.00 | 57 | |
| 20260831171702 | 89 | 160 | 7.0 | 10.0 | 0.00 | 0.00 | 0.00 | 56 | |
| 20260831171200 | 89 | 123 | 7.0 | 11.0 | 0.00 | 0.00 | 0.00 | 58 | |
| 20260831170656 | 89 | 164 | 9.0 | 13.0 | 0.00 | 0.00 | 0.00 | 55 | |
| 20260831170153 | 88 | 189 | 9.0 | 14.0 | 0.00 | 0.00 | 0.00 | 57 | |
| 20260831165648 | 88 | 224 | 3.0 | 5.0 | 0.00 | 0.00 | 0.00 | 60 | |
| 20260831165144 | 87 | 214 | 5.0 | 8.0 | 0.00 | 0.00 | 0.00 | 62 | |
| 20260831164640 | 87 | 234 | 6.0 | 7.0 | 0.00 | 0.00 | 0.00 | 62 | |
| 20260831164136 | 87 | 167 | 4.0 | 9.0 | 0.00 | 0.00 | 0.00 | 61 | |
| 20260831163631 | 87 | 132 | 6.0 | 10.0 | 0.00 | 0.00 | 0.00 | 63 | |
| 20260831163127 | 87 | 155 | 7.0 | 10.0 | 0.00 | 0.00 | 0.00 | 62 | |
| 20260831162626 | 87 | 155 | 9.0 | 11.0 | 0.00 | 0.00 | 0.00 | 61 | |
| 20260831162124 | 88 | 134 | 6.0 | 10.0 | 0.00 | 0.00 | 0.00 | 61 | |
| 20260831161620 | 87 | 180 | 3.0 | 7.0 | 0.00 | 0.00 | 0.00 | 64 | |
| 20260831161116 | 87 | 121 | 7.0 | 14.0 | 0.00 | 0.00 | 0.00 | 63 | |
| 20260831160615 | 87 | 196 | 9.0 | 10.0 | 0.00 | 0.00 | 0.00 | 63 | |
| 20260831160110 | 85 | 184 | 4.0 | 10.0 | 0.00 | 0.00 | 0.00 | 66 | |
| 20260831155605 | 85 | 235 | 3.0 | 3.0 | 0.00 | 0.00 | 0.00 | 68 | |
| 20260831155100 | 84 | 225 | 3.0 | 6.0 | 0.00 | 0.00 | 0.00 | 69 | |
| 20260831154556 | 84 | 176 | 5.0 | 8.0 | 0.00 | 0.00 | 0.00 | 69 | |
| 20260831154056 | 84 | 210 | 5.0 | 9.0 | 0.00 | 0.00 | 0.00 | 70 | |
| 20260831153555 | 84 | 198 | 5.0 | 9.0 | 0.00 | 0.00 | 0.00 | 69 | |
| 20260831153052 | 84 | 166 | 2.0 | 7.0 | 0.00 | 0.00 | 0.00 | 69 | |
| 20260831152547 | 84 | 175 | 5.0 | 10.0 | 0.00 | 0.00 | 0.00 | 69 | |
| 20260831152043 | 84 | 180 | 4.0 | 10.0 | 0.00 | 0.00 | 0.00 | 70 | |
| 20260831151542 | 84 | 195 | 5.0 | 10.0 | 0.00 | 0.00 | 0.00 | 70 | |
| 20260831151037 | 84 | 171 | 6.0 | 10.0 | 0.00 | 0.00 | 0.00 | 71 | |
| 20260831150532 | 83 | 143 | 7.0 | 10.0 | 0.00 | 0.00 | 0.00 | 73 | |
| 20260831150028 | 83 | 191 | 9.0 | 11.0 | 0.00 | 0.00 | 0.00 | 74 | |
| 20260831145522 | 83 | 218 | 5.0 | 13.0 | 0.00 | 0.00 | 0.00 | 74 | |
| 20260831145019 | 83 | 186 | 8.0 | 11.0 | 0.00 | 0.00 | 0.00 | 75 | |
| 20260831144514 | 82 | 145 | 6.0 | 10.0 | 0.00 | 0.00 | 0.00 | 77 | |
| 20260831144009 | 82 | 164 | 9.0 | 10.0 | 0.00 | 0.00 | 0.00 | 77 | |
| 20260831143504 | 81 | 202 | 8.0 | 9.0 | 0.00 | 0.00 | 0.00 | 80 | |
| 20260831142959 | 81 | 205 | 5.0 | 7.0 | 0.00 | 0.00 | 0.00 | 81 | |
| 20260831142456 | 80 | 204 | 6.0 | 10.0 | 0.00 | 0.00 | 0.00 | 82 | |
| 20260831141950 | 80 | 203 | 7.0 | 11.0 | 0.00 | 0.00 | 0.00 | 82 | |
| 20260831141449 | 80 | 215 | 10.0 | 14.0 | 0.00 | 0.00 | 0.00 | 82 | |
| 20260831140944 | 80 | 193 | 5.0 | 8.0 | 0.00 | 0.00 | 0.00 | 83 | |
| 20260831140439 | 80 | 225 | 12.0 | 14.0 | 0.00 | 0.00 | 0.00 | 83 | |
| 20260831135938 | 80 | 149 | 9.0 | 10.0 | 0.00 | 0.00 | 0.00 | 84 | |
| 20260831135437 | 79 | 171 | 6.0 | 8.0 | 0.00 | 0.00 | 0.00 | 86 | |
| 20260831134932 | 79 | 178 | 5.0 | 6.0 | 0.00 | 0.00 | 0.00 | 86 | |
| 20260831134429 | 79 | 187 | 8.0 | 9.0 | 0.00 | 0.00 | 0.00 | 87 | |
| 20260831133928 | 79 | 185 | 4.0 | 10.0 | 0.00 | 0.00 | 0.00 | 87 | |
| 20260831133428 | 79 | 194 | 4.0 | 6.0 | 0.00 | 0.00 | 0.00 | 87 | |
| 20260831132923 | 79 | 236 | 3.0 | 5.0 | 0.00 | 0.00 | 0.00 | 88 | |
| 20260831132419 | 78 | 175 | 3.0 | 8.0 | 0.00 | 0.00 | 0.00 | 89 | |
| 20260831131918 | 78 | 128 | 3.0 | 7.0 | 0.00 | 0.00 | 0.00 | 90 | |
| 20260831131414 | 78 | 223 | 3.0 | 5.0 | 0.00 | 0.00 | 0.00 | 90 | |
| 20260831130909 | 77 | 171 | 2.0 | 3.0 | 0.00 | 0.00 | 0.00 | 91 | |
| 20260831130405 | 77 | 188 | 3.0 | 3.0 | 0.00 | 0.00 | 0.00 | 91 | |
| 20260831125903 | 77 | 216 | 3.0 | 3.0 | 0.00 | 0.00 | 0.00 | 92 | |
| 20260831125359 | 76 | 182 | 3.0 | 5.0 | 0.00 | 0.00 | 0.00 | 92 | |
| 20260831124854 | 76 | 199 | 3.0 | 6.0 | 0.00 | 0.00 | 0.00 | 93 | |
| 20260831124350 | 76 | 179 | 3.0 | 5.0 | 0.00 | 0.00 | 0.00 | 93 | |
| 20260831123845 | 76 | 160 | 3.0 | 5.0 | 0.00 | 0.00 | 0.00 | 93 | |
| 20260831123344 | 76 | 199 | 1.0 | 2.0 | 0.00 | 0.00 | 0.00 | 93 | |
| 20260831122839 | 76 | 192 | 3.0 | 5.0 | 0.00 | 0.00 | 0.00 | 93 | |
| 20260831122334 | 76 | 180 | 3.0 | 3.0 | 0.00 | 0.00 | 0.00 | 93 | |
| 20260831121834 | 76 | 187 | 3.0 | 3.0 | 0.00 | 0.00 | 0.00 | 92 | |
| 20260831121330 | 76 | 159 | 3.0 | 5.0 | 0.00 | 0.00 | 0.00 | 92 | |
| 20260831120826 | 76 | 201 | 3.0 | 5.0 | 0.00 | 0.00 | 0.00 | 92 | |
| 20260831120320 | 76 | 191 | 4.0 | 5.0 | 0.00 | 0.00 | 0.00 | 92 | |
| 20260831115815 | 76 | 191 | 2.0 | 3.0 | 0.00 | 0.00 | 0.00 | 92 | |
| 20260831115312 | 76 | 190 | 3.0 | 5.0 | 0.00 | 0.00 | 0.00 | 92 | |
| 20260831114811 | 76 | 180 | 3.0 | 6.0 | 0.00 | 0.00 | 0.00 | 91 | |
| 20260831114310 | 76 | 167 | 3.0 | 5.0 | 0.00 | 0.00 | 0.00 | 91 | |
| 20260831113806 | 76 | 192 | 4.0 | 6.0 | 0.00 | 0.00 | 0.00 | 91 | |
| 20260831113300 | 76 | 204 | 3.0 | 5.0 | 0.00 | 0.00 | 0.00 | 91 | |
| 20260831112754 | 77 | 182 | 4.0 | 6.0 | 0.00 | 0.00 | 0.00 | 91 | |
| 20260831112249 | 77 | 193 | 4.0 | 7.0 | 0.00 | 0.00 | 0.00 | 90 | |
| 20260831111744 | 77 | 123 | 4.0 | 6.0 | 0.00 | 0.00 | 0.00 | 90 | |
| 20260831111241 | 77 | 143 | 5.0 | 7.0 | 0.00 | 0.00 | 0.00 | 90 | |
| 20260831110736 | 77 | 169 | 7.0 | 9.0 | 0.00 | 0.00 | 0.00 | 90 | |
| 20260831110231 | 77 | 182 | 5.0 | 6.0 | 0.00 | 0.00 | 0.00 | 90 | |
| 20260831105730 | 77 | 195 | 6.0 | 9.0 | 0.00 | 0.00 | 0.00 | 90 | |
| 20260831105226 | 77 | 189 | 5.0 | 8.0 | 0.00 | 0.00 | 0.00 | 90 | |
| 20260831104720 | 77 | 177 | 3.0 | 6.0 | 0.00 | 0.00 | 0.00 | 89 | |
| 20260831104217 | 77 | 155 | 4.0 | 9.0 | 0.00 | 0.00 | 0.00 | 89 | |
| 20260831103717 | 77 | 176 | 5.0 | 8.0 | 0.00 | 0.00 | 0.00 | 89 | |
| 20260831103213 | 77 | 200 | 7.0 | 8.0 | 0.00 | 0.00 | 0.00 | 90 | |
| 20260831102712 | 77 | 223 | 5.0 | 8.0 | 0.00 | 0.00 | 0.00 | 90 | |
| 20260831102207 | 77 | 192 | 2.0 | 6.0 | 0.00 | 0.00 | 0.00 | 89 | |
| 20260831101702 | 77 | 151 | 5.0 | 8.0 | 0.00 | 0.00 | 0.00 | 89 | |
| 20260831101158 | 77 | 210 | 6.0 | 8.0 | 0.00 | 0.00 | 0.00 | 90 | |
| 20260831100654 | 77 | 209 | 5.0 | 7.0 | 0.00 | 0.00 | 0.00 | 89 | |
| 20260831100150 | 77 | 180 | 4.0 | 9.0 | 0.00 | 0.00 | 0.00 | 89 | |
| 20260831095648 | 77 | 174 | 8.0 | 10.0 | 0.00 | 0.00 | 0.00 | 89 | |
| 20260831095143 | 77 | 207 | 5.0 | 7.0 | 0.00 | 0.00 | 0.00 | 89 | |
| 20260831094638 | 77 | 183 | 6.0 | 7.0 | 0.00 | 0.00 | 0.00 | 89 | |
| 20260831094134 | 77 | 190 | 4.0 | 7.0 | 0.00 | 0.00 | 0.00 | 89 | |
| 20260831093630 | 77 | 165 | 6.0 | 10.0 | 0.00 | 0.00 | 0.00 | 89 | |
| 20260831093126 | 77 | 176 | 7.0 | 8.0 | 0.00 | 0.00 | 0.00 | 89 | |
| 20260831092622 | 77 | 204 | 6.0 | 8.0 | 0.00 | 0.00 | 0.00 | 89 | |
| 20260831092117 | 76 | 207 | 5.0 | 7.0 | 0.00 | 0.00 | 0.00 | 89 | |
| 20260831091616 | 76 | 227 | 6.0 | 7.0 | 0.00 | 0.00 | 0.00 | 89 | |
| 20260831091112 | 76 | 211 | 2.0 | 7.0 | 0.00 | 0.00 | 0.00 | 89 | |
| 20260831090608 | 76 | 214 | 5.0 | 8.0 | 0.00 | 0.00 | 0.00 | 88 | |
| 20260831090104 | 76 | 164 | 9.0 | 13.0 | 0.00 | 0.00 | 0.00 | 89 | |
| 20260831085558 | 76 | 159 | 5.0 | 11.0 | 0.00 | 0.00 | 0.00 | 89 | |
| 20260831085054 | 76 | 190 | 7.0 | 8.0 | 0.00 | 0.00 | 0.00 | 88 | |
| 20260831084549 | 76 | 197 | 5.0 | 9.0 | 0.00 | 0.00 | 0.00 | 88 | |
| 20260831084046 | 76 | 195 | 5.0 | 8.0 | 0.00 | 0.00 | 0.00 | 88 | |
| 20260831083542 | 76 | 179 | 6.0 | 10.0 | 0.00 | 0.00 | 0.00 | 87 | |
| 20260831083036 | 76 | 179 | 8.0 | 9.0 | 0.00 | 0.00 | 0.00 | 87 | |
| 20260831082535 | 77 | 175 | 4.0 | 7.0 | 0.00 | 0.00 | 0.00 | 86 | |
| 20260831082025 | 77 | 185 | 6.0 | 7.0 | 0.00 | 0.00 | 0.00 | 86 | |
| 20260831081521 | 77 | 168 | 7.0 | 9.0 | 0.00 | 0.00 | 0.00 | 86 | |
| 20260831081017 | 77 | 197 | 3.0 | 8.0 | 0.00 | 0.00 | 0.00 | 85 | |
| 20260831080516 | 77 | 211 | 4.0 | 7.0 | 0.00 | 0.00 | 0.00 | 85 | |
| 20260831080012 | 77 | 181 | 6.0 | 11.0 | 0.00 | 0.00 | 0.00 | 85 | |
| 20260831075507 | 77 | 214 | 5.0 | 8.0 | 0.00 | 0.00 | 0.00 | 84 | |
| 20260831075003 | 77 | 182 | 4.0 | 7.0 | 0.00 | 0.00 | 0.00 | 84 | |
| 20260831074457 | 77 | 87 | 3.0 | 7.0 | 0.00 | 0.00 | 0.00 | 83 | |
| 20260831073957 | 77 | 162 | 5.0 | 6.0 | 0.00 | 0.00 | 0.00 | 83 | |
| 20260831073456 | 77 | 171 | 4.0 | 8.0 | 0.00 | 0.00 | 0.00 | 82 | |
| 20260831072955 | 77 | 162 | 4.0 | 7.0 | 0.00 | 0.00 | 0.00 | 82 | |
| 20260831072451 | 78 | 202 | 5.0 | 7.0 | 0.00 | 0.00 | 0.00 | 81 | |
| 20260831071948 | 78 | 185 | 5.0 | 8.0 | 0.00 | 0.00 | 0.00 | 81 | |
| 20260831071447 | 78 | 142 | 4.0 | 6.0 | 0.00 | 0.00 | 0.00 | 80 | |
| 20260831070942 | 78 | 185 | 4.0 | 7.0 | 0.00 | 0.00 | 0.00 | 80 | |
| 20260831070441 | 78 | 179 | 5.0 | 7.0 | 0.00 | 0.00 | 0.00 | 80 | |
| 20260831065940 | 78 | 130 | 3.0 | 5.0 | 0.00 | 0.00 | 0.00 | 79 | |
| 20260831065439 | 78 | 203 | 2.0 | 6.0 | 0.00 | 0.00 | 0.00 | 79 | |
| 20260831064933 | 78 | 176 | 2.0 | 5.0 | 0.00 | 0.00 | 0.00 | 78 | |
| 20260831064429 | 79 | 203 | 3.0 | 5.0 | 0.00 | 0.00 | 0.00 | 78 | |
| 20260831063925 | 79 | 211 | 4.0 | 7.0 | 0.00 | 0.00 | 0.00 | 78 | |
| 20260831063420 | 79 | 201 | 3.0 | 6.0 | 0.00 | 0.00 | 0.00 | 77 | |
| 20260831062919 | 79 | 159 | 3.0 | 6.0 | 0.00 | 0.00 | 0.00 | 77 | |
| 20260831062415 | 79 | 183 | 4.0 | 7.0 | 0.00 | 0.00 | 0.00 | 76 | |
| 20260831061914 | 79 | 181 | 5.0 | 10.0 | 0.00 | 0.00 | 0.00 | 76 | |
| 20260831061413 | 80 | 184 | 5.0 | 6.0 | 0.00 | 0.00 | 0.00 | 75 | |
| 20260831060909 | 80 | 185 | 7.0 | 9.0 | 0.00 | 0.00 | 0.00 | 75 | |
| 20260831060404 | 80 | 156 | 5.0 | 10.0 | 0.00 | 0.00 | 0.00 | 75 | |
| 20260831055903 | 80 | 174 | 6.0 | 8.0 | 0.00 | 0.00 | 0.00 | 75 | |
| 20260831055358 | 80 | 193 | 5.0 | 7.0 | 0.00 | 0.00 | 0.00 | 74 | |
| 20260831054853 | 80 | 167 | 4.0 | 6.0 | 0.00 | 0.00 | 0.00 | 74 | |
| 20260831054348 | 80 | 138 | 4.0 | 6.0 | 0.00 | 0.00 | 0.00 | 73 | |
| 20260831053842 | 81 | 154 | 6.0 | 8.0 | 0.00 | 0.00 | 0.00 | 73 | |
| 20260831053340 | 81 | 163 | 5.0 | 9.0 | 0.00 | 0.00 | 0.00 | 72 | |
| 20260831052835 | 81 | 121 | 2.0 | 8.0 | 0.00 | 0.00 | 0.00 | 72 | |
| 20260831052334 | 81 | 162 | 7.0 | 9.0 | 0.00 | 0.00 | 0.00 | 72 | |
| 20260831051833 | 82 | 189 | 5.0 | 10.0 | 0.00 | 0.00 | 0.00 | 72 | |
| 20260831051331 | 82 | 164 | 3.0 | 10.0 | 0.00 | 0.00 | 0.00 | 72 | |
| 20260831050826 | 82 | 186 | 6.0 | 9.0 | 0.00 | 0.00 | 0.00 | 71 | |
| 20260831050325 | 82 | 183 | 13.0 | 15.0 | 0.00 | 0.00 | 0.00 | 71 | |
| 20260831045820 | 82 | 173 | 6.0 | 9.0 | 0.00 | 0.00 | 0.00 | 70 | |
| 20260831045314 | 82 | 166 | 5.0 | 10.0 | 0.00 | 0.00 | 0.00 | 70 | |
| 20260831044809 | 83 | 203 | 6.0 | 11.0 | 0.00 | 0.00 | 0.00 | 70 | |
| 20260831044304 | 83 | 155 | 4.0 | 8.0 | 0.00 | 0.00 | 0.00 | 69 | |
| 20260831043800 | 83 | 163 | 10.0 | 15.0 | 0.00 | 0.00 | 0.00 | 69 | |
| 20260831043254 | 83 | 169 | 9.0 | 11.0 | 0.00 | 0.00 | 0.00 | 68 | |
| 20260831042754 | 83 | 178 | 7.0 | 8.0 | 0.00 | 0.00 | 0.00 | 67 | |
| 20260831042249 | 84 | 133 | 6.0 | 10.0 | 0.00 | 0.00 | 0.00 | 66 | |
| 20260831041744 | 84 | 168 | 6.0 | 11.0 | 0.00 | 0.00 | 0.00 | 66 | |
| 20260831041243 | 84 | 148 | 11.0 | 16.0 | 0.00 | 0.00 | 0.00 | 65 | |
| 20260831040739 | 84 | 128 | 2.0 | 9.0 | 0.00 | 0.00 | 0.00 | 64 | |
| 20260831040238 | 84 | 158 | 6.0 | 9.0 | 0.00 | 0.00 | 0.00 | 64 | |
| 20260831035737 | 84 | 183 | 4.0 | 7.0 | 0.00 | 0.00 | 0.00 | 63 | |
| 20260831035236 | 85 | 167 | 6.0 | 13.0 | 0.00 | 0.00 | 0.00 | 63 | |
| 20260831034735 | 85 | 178 | 6.0 | 11.0 | 0.00 | 0.00 | 0.00 | 62 | |
| 20260831034231 | 85 | 156 | 7.0 | 13.0 | 0.00 | 0.00 | 0.00 | 62 | |
| 20260831033726 | 85 | 190 | 9.0 | 13.0 | 0.00 | 0.00 | 0.00 | 61 | |
| 20260831033226 | 86 | 144 | 8.0 | 14.0 | 0.00 | 0.00 | 0.00 | 61 | |
| 20260831032721 | 86 | 158 | 8.0 | 13.0 | 0.00 | 0.00 | 0.00 | 60 | |
| 20260831032216 | 86 | 135 | 9.0 | 13.0 | 0.00 | 0.00 | 0.00 | 60 | |
| 20260831031716 | 86 | 139 | 7.0 | 10.0 | 0.00 | 0.00 | 0.00 | 60 | |
| 20260831031211 | 86 | 103 | 2.0 | 8.0 | 0.00 | 0.00 | 0.00 | 60 | |
| 20260831030710 | 86 | 116 | 5.0 | 11.0 | 0.00 | 0.00 | 0.00 | 60 | |
| 20260831030209 | 86 | 129 | 5.0 | 9.0 | 0.00 | 0.00 | 0.00 | 60 | |
| 20260831025708 | 86 | 131 | 4.0 | 7.0 | 0.00 | 0.00 | 0.00 | 59 | |
| 20260831025203 | 86 | 172 | 6.0 | 10.0 | 0.00 | 0.00 | 0.00 | 59 | |
| 20260831024659 | 87 | 148 | 5.0 | 7.0 | 0.00 | 0.00 | 0.00 | 58 | |
| 20260831024157 | 87 | 132 | 6.0 | 7.0 | 0.00 | 0.00 | 0.00 | 58 | |
| 20260831023656 | 87 | 156 | 6.0 | 8.0 | 0.00 | 0.00 | 0.00 | 57 | |
| 20260831023155 | 87 | 126 | 5.0 | 7.0 | 0.00 | 0.00 | 0.00 | 57 | |
| 20260831022650 | 87 | 161 | 3.0 | 5.0 | 0.00 | 0.00 | 0.00 | 57 | |
| 20260831022140 | 88 | 159 | 5.0 | 7.0 | 0.00 | 0.00 | 0.00 | 56 | |
| 20260831021639 | 88 | 143 | 7.0 | 8.0 | 0.00 | 0.00 | 0.00 | 56 | |
| 20260831021134 | 88 | 147 | 5.0 | 8.0 | 0.00 | 0.00 | 0.00 | 55 | |
| 20260831020630 | 88 | 133 | 4.0 | 6.0 | 0.00 | 0.00 | 0.00 | 54 | |
| 20260831020125 | 89 | 162 | 3.0 | 7.0 | 0.00 | 0.00 | 0.00 | 54 | |
| 20260831015621 | 89 | 168 | 4.0 | 7.0 | 0.00 | 0.00 | 0.00 | 53 | |
| 20260831015120 | 89 | 129 | 8.0 | 11.0 | 0.00 | 0.00 | 0.00 | 52 | |
| 20260831014615 | 89 | 124 | 9.0 | 13.0 | 0.00 | 0.00 | 0.00 | 51 | |
| 20260831014110 | 89 | 145 | 6.0 | 9.0 | 0.00 | 0.00 | 0.00 | 49 | |
| 20260831013606 | 90 | 137 | 5.0 | 6.0 | 0.00 | 0.00 | 0.00 | 49 | |
| 20260831013101 | 90 | 127 | 4.0 | 6.0 | 0.00 | 0.00 | 0.00 | 49 | |
| 20260831012600 | 90 | 127 | 3.0 | 5.0 | 0.00 | 0.00 | 0.00 | 49 | |
| 20260831012055 | 90 | 141 | 5.0 | 6.0 | 0.00 | 0.00 | 0.00 | 48 | |
| 20260831011554 | 91 | 134 | 4.0 | 6.0 | 0.00 | 0.00 | 0.00 | 48 | |
| 20260831011050 | 91 | 125 | 5.0 | 6.0 | 0.00 | 0.00 | 0.00 | 48 | |
| 20260831010545 | 91 | 121 | 3.0 | 5.0 | 0.00 | 0.00 | 0.00 | 47 | |
| 20260831010042 | 91 | 133 | 4.0 | 6.0 | 0.00 | 0.00 | 0.00 | 47 | |
| 20260831005537 | 92 | 120 | 4.0 | 7.0 | 0.00 | 0.00 | 0.00 | 46 | |
| 20260831005036 | 92 | 153 | 6.0 | 7.0 | 0.00 | 0.00 | 0.00 | 45 | |
| 20260831004532 | 93 | 147 | 7.0 | 8.0 | 0.00 | 0.00 | 0.00 | 45 | |
| 20260831004028 | 93 | 132 | 3.0 | 5.0 | 0.00 | 0.00 | 0.00 | 44 | |
| 20260831003524 | 93 | 157 | 4.0 | 7.0 | 0.00 | 0.00 | 0.00 | 44 | |
| 20260831003019 | 93 | 110 | 5.0 | 8.0 | 0.00 | 0.00 | 0.00 | 43 | |
| 20260831002518 | 94 | 116 | 4.0 | 7.0 | 0.00 | 0.00 | 0.00 | 43 | |
| 20260831002013 | 94 | 161 | 5.0 | 6.0 | 0.00 | 0.00 | 0.00 | 42 | |
| 20260831001508 | 94 | 148 | 5.0 | 10.0 | 0.00 | 0.00 | 0.00 | 42 | |
| 20260831000959 | 94 | 166 | 3.0 | 6.0 | 0.00 | 0.00 | 0.00 | 42 | |
| 20260831000455 | 94 | 138 | 8.0 | 9.0 | 0.00 | 0.00 | 0.00 | 42 | |
| 20260830235953 | 94 | 171 | 6.0 | 8.0 | 0.00 | 0.00 | 0.00 | 41 | |
| 20260830235448 | 94 | 131 | 5.0 | 8.0 | 0.00 | 0.00 | 0.00 | 41 | |
| 20260830234943 | 95 | 120 | 9.0 | 13.0 | 0.00 | 0.00 | 0.00 | 41 | |
| 20260830234438 | 95 | 96 | 7.0 | 9.0 | 0.00 | 0.00 | 0.00 | 41 | |
| 20260830233934 | 94 | 169 | 5.0 | 8.0 | 0.00 | 0.00 | 0.00 | 42 | |
| 20260830233429 | 95 | 126 | 5.0 | 13.0 | 0.00 | 0.00 | 0.00 | 42 | |
| 20260830232925 | 95 | 127 | 7.0 | 10.0 | 0.00 | 0.00 | 0.00 | 41 | |
| 20260830232421 | 95 | 137 | 6.0 | 9.0 | 0.00 | 0.00 | 0.00 | 41 | |
| 20260830231917 | 95 | 108 | 3.0 | 6.0 | 0.00 | 0.00 | 0.00 | 41 | |
| 20260830231412 | 95 | 131 | 8.0 | 8.0 | 0.00 | 0.00 | 0.00 | 40 | |
| 20260830230912 | 95 | 128 | 4.0 | 8.0 | 0.00 | 0.00 | 0.00 | 41 | |
| 20260830230407 | 95 | 122 | 7.0 | 15.0 | 0.00 | 0.00 | 0.00 | 41 | |
| 20260830225906 | 95 | 90 | 7.0 | 9.0 | 0.00 | 0.00 | 0.00 | 42 | |
| 20260830225402 | 95 | 122 | 3.0 | 6.0 | 0.00 | 0.00 | 0.00 | 40 | |
| 20260830224856 | 95 | 188 | 8.0 | 9.0 | 0.00 | 0.00 | 0.00 | 40 | |
| 20260830224355 | 95 | 141 | 3.0 | 10.0 | 0.00 | 0.00 | 0.00 | 41 | |
| 20260830223852 | 95 | 199 | 8.0 | 11.0 | 0.00 | 0.00 | 0.00 | 41 | |
| 20260830223348 | 95 | 137 | 9.0 | 10.0 | 0.00 | 0.00 | 0.00 | 41 | |
| 20260830222847 | 95 | 214 | 3.0 | 11.0 | 0.00 | 0.00 | 0.00 | 42 | |
| 20260830222343 | 95 | 161 | 4.0 | 14.0 | 0.00 | 0.00 | 0.00 | 43 | |
| 20260830221838 | 95 | 160 | 7.0 | 9.0 | 0.00 | 0.00 | 0.00 | 42 | |
| 20260830221335 | 95 | 127 | 5.0 | 8.0 | 0.00 | 0.00 | 0.00 | 43 | |
| 20260830220830 | 95 | 138 | 9.0 | 10.0 | 0.00 | 0.00 | 0.00 | 43 | |
| 20260830220329 | 94 | 149 | 5.0 | 8.0 | 0.00 | 0.00 | 0.00 | 44 | |
| 20260830215827 | 94 | 179 | 5.0 | 13.0 | 0.00 | 0.00 | 0.00 | 43 | |
| 20260830215322 | 94 | 161 | 5.0 | 9.0 | 0.00 | 0.00 | 0.00 | 41 | |
| 20260830214817 | 93 | 136 | 9.0 | 11.0 | 0.00 | 0.00 | 0.00 | 45 | |
| 20260830214312 | 95 | 113 | 8.0 | 11.0 | 0.00 | 0.00 | 0.00 | 44 | |
| 20260830213812 | 95 | 124 | 6.0 | 10.0 | 0.00 | 0.00 | 0.00 | 45 | |
| 20260830213307 | 94 | 176 | 7.0 | 8.0 | 0.00 | 0.00 | 0.00 | 45 | |
| 20260830212803 | 94 | 166 | 9.0 | 10.0 | 0.00 | 0.00 | 0.00 | 44 | |
| 20260830212259 | 94 | 154 | 9.0 | 13.0 | 0.00 | 0.00 | 0.00 | 45 | |
| 20260830211758 | 94 | 137 | 7.0 | 9.0 | 0.00 | 0.00 | 0.00 | 45 | |
| 20260830211257 | 94 | 104 | 3.0 | 13.0 | 0.00 | 0.00 | 0.00 | 46 | |
| 20260830210753 | 94 | 124 | 6.0 | 10.0 | 0.00 | 0.00 | 0.00 | 47 | |
| 20260830210252 | 93 | 87 | 6.0 | 11.0 | 0.00 | 0.00 | 0.00 | 48 | |
| 20260830205750 | 93 | 153 | 9.0 | 10.0 | 0.00 | 0.00 | 0.00 | 48 | |
| 20260830205244 | 94 | 96 | 7.0 | 11.0 | 0.00 | 0.00 | 0.00 | 48 | |
| 20260830204740 | 95 | 137 | 6.0 | 7.0 | 0.00 | 0.00 | 0.00 | 44 | |
| 20260830204239 | 95 | 135 | 3.0 | 9.0 | 0.00 | 0.00 | 0.00 | 48 | |
| 20260830203735 | 94 | 129 | 3.0 | 10.0 | 0.00 | 0.00 | 0.00 | 46 | |
| 20260830203230 | 93 | 119 | 5.0 | 10.0 | 0.00 | 0.00 | 0.00 | 48 | |
| 20260830202730 | 93 | 123 | 3.0 | 6.0 | 0.00 | 0.00 | 0.00 | 48 | |
| 20260830202226 | 93 | 104 | 5.0 | 11.0 | 0.00 | 0.00 | 0.00 | 50 | |
| 20260830201725 | 94 | 138 | 10.0 | 15.0 | 0.00 | 0.00 | 0.00 | 47 | |
| 20260830201220 | 94 | 149 | 8.0 | 14.0 | 0.00 | 0.00 | 0.00 | 46 | |
| 20260830200716 | 94 | 117 | 6.0 | 11.0 | 0.00 | 0.00 | 0.00 | 46 | |
| 20260830200215 | 94 | 190 | 7.0 | 11.0 | 0.00 | 0.00 | 0.00 | 47 | |
| 20260830195710 | 93 | 156 | 4.0 | 8.0 | 0.00 | 0.00 | 0.00 | 48 | |
| 20260830195209 | 93 | 144 | 10.0 | 13.0 | 0.00 | 0.00 | 0.00 | 47 | |
| 20260830194707 | 92 | 109 | 0.0 | 3.0 | 0.00 | 0.00 | 0.00 | 50 | |
| 20260830194202 | 92 | 181 | 8.0 | 13.0 | 0.00 | 0.00 | 0.00 | 50 | |
| 20260830193656 | 92 | 101 | 12.0 | 15.0 | 0.00 | 0.00 | 0.00 | 50 | |
| 20260830193156 | 91 | 164 | 4.0 | 8.0 | 0.00 | 0.00 | 0.00 | 50 | |
| 20260830192652 | 91 | 146 | 7.0 | 14.0 | 0.00 | 0.00 | 0.00 | 51 | |
| 20260830192147 | 93 | 138 | 7.0 | 10.0 | 0.00 | 0.00 | 0.00 | 49 | |
| 20260830191643 | 93 | 130 | 5.0 | 10.0 | 0.00 | 0.00 | 0.00 | 50 | |
| 20260830191137 | 92 | 133 | 8.0 | 13.0 | 0.00 | 0.00 | 0.00 | 51 | |
| 20260830190633 | 92 | 223 | 3.0 | 10.0 | 0.00 | 0.00 | 0.00 | 50 | |
| 20260830190127 | 93 | 166 | 7.0 | 14.0 | 0.00 | 0.00 | 0.00 | 49 | |
| 20260830185621 | 92 | 87 | 6.0 | 10.0 | 0.00 | 0.00 | 0.00 | 52 | |
| 20260830185117 | 92 | 172 | 9.0 | 13.0 | 0.00 | 0.00 | 0.00 | 51 | |
| 20260830184615 | 92 | 123 | 4.0 | 10.0 | 0.00 | 0.00 | 0.00 | 51 | |
| 20260830184116 | 91 | 160 | 5.0 | 11.0 | 0.00 | 0.00 | 0.00 | 52 | |
| 20260830183611 | 91 | 202 | 4.0 | 10.0 | 0.00 | 0.00 | 0.00 | 53 | |
| 20260830183107 | 91 | 129 | 7.0 | 14.0 | 0.00 | 0.00 | 0.00 | 52 | |
| 20260830182602 | 91 | 152 | 12.0 | 17.0 | 0.00 | 0.00 | 0.00 | 52 | |
| 20260830182058 | 91 | 130 | 6.0 | 10.0 | 0.00 | 0.00 | 0.00 | 52 |